Lexington Weather

Lexington, Massachusetts, USA

53°F
10/17/2021 8:42pm 
  • Lexington Conditions: Clear
  • Temperature: 53.1°F / 11.7°CColder 1.0°F than last hour.
  • Dew Point: 47.7°FDecreased 0.3°Fsince last hour.
  • Relative Humidity: 82%Increased 2.0% since last hour.
  • Wind: Calm, 10-min avg: Calm, gust: 2 mph
  • Barometer: 29.67 inRising 0.02  inHg/hr Rising Slowly
  • Visibility: 10 miles
  • Rain Today: 0.35 in
  •   

Regional Weather Roundup
for Boston / Norton, MA

        
000
ASUS41 KBOX 140104
RWRBOX

REGIONAL WEATHER ROUNDUP
NATIONAL WEATHER SERVICE BOSTON/NORTON MA
900 PM EDT WED OCT 13 2021

NOTE:  "FAIR" INDICATES FEW OR NO CLOUDS BELOW 12,000 FEET WITH NO 
SIGNIFICANT WEATHER AND/OR OBSTRUCTIONS TO VISIBILITY.

MAZALL-140200-
EASTERN MASSACHUSETTS
  
CITY           SKY/WX    TMP DP  RH WIND       PRES   REMARKS
BOSTON         PTCLDY    67  59  75 SW8       29.95R                  
BEVERLY        CLEAR     62  58  86 CALM      29.94R                  
LAWRENCE       CLEAR     64  58  80 SW6       29.95F                  
BEDFORD        CLEAR     60  59  96 SW3       29.94S                  
BLUE HILL      NOT AVBL                                               
NORWOOD        CLEAR     59  56  89 CALM      29.95S                  
MARSHFIELD     CLOUDY    61  59  94 SW3       29.96S                  
PLYMOUTH       CLEAR     61  58  90 CALM      29.97R                  
TAUNTON        CLEAR     60  58  92 CALM      29.96S                  
NEW BEDFORD    CLEAR     60  58  92 SW5       29.96S                  
$$

MAZALL-140200-
CAPE COD AND THE ISLANDS
  
CITY           SKY/WX    TMP DP  RH WIND       PRES   REMARKS
FALMOUTH       CLEAR     61  59  94 SW7       29.98S                  
HYANNIS        CLEAR     63  60  90 SW6       29.96S                  
CHATHAM        CLEAR     63  58  83 SW7       29.98S                  
PROVINCETOWN   CLEAR     62  60  93 SW10      29.97R                  
NANTUCKET      PTCLDY    61  58  90 S7        29.98F                  
MARTHAS VNYRD  PTCLDY    58  57  97 S7        29.97F                  
$$
 
MAZALL-140200-
CENTRAL AND WESTERN MASSACHUSETTS
  
CITY           SKY/WX    TMP DP  RH WIND       PRES   REMARKS
WORCESTER      CLEAR     58  56  93 W10       29.97S                  
FITCHBURG      CLEAR     60  56  86 NW3       29.95F                  
ORANGE         CLEAR     56  54  93 CALM      29.97F                  
SPRINGFIELD    PTCLDY    60  59  97 CALM      29.95S                  
WESTFIELD      PTCLDY    60  59  96 S3        29.96S                  
NORTH ADAMS    CLOUDY    63  59  87 CALM      29.98F                  
PITTSFIELD     MOCLDY    61  58  90 SW5       29.99S                  
$$
 
RIZALL-140200-
RHODE ISLAND
  
CITY           SKY/WX    TMP DP  RH WIND       PRES   REMARKS
PROVIDENCE     PTCLDY    62  59  90 SW7       29.97S                  
NEWPORT        PTCLDY    61  60  97 S5        29.97F                  
BLOCK ISLAND   PTCLDY    63  60  90 SW8       29.99S                  
SMITHFIELD     CLEAR     59  58  96 SW3       29.98R                  
WESTERLY       MOCLDY    64  61  90 SW5       29.97F                  
$$
 
CTZALL-140200-
CONNECTICUT
  
CITY           SKY/WX    TMP DP  RH WIND       PRES   REMARKS
BRADLEY INTL   PTCLDY    62  60  93 SW5       29.97S                  
HARTFORD       PTCLDY    66  59  78 S3        29.97S                  
BRIDGEPORT     CLOUDY    67  62  84 CALM      29.99S                  
DANBURY        CLOUDY    64  61  90 CALM      30.00S                  
GROTON         CLOUDY    66  61  84 SW8       29.97S                  
NEW HAVEN      CLOUDY    68  64  87 CALM      29.99S                  
CHESTER        MOCLDY    64  63  94 VRB3      29.99S                  
MERIDEN        CLOUDY    65  60  84 SW3       29.98F                  
WILLIMANTIC    CLOUDY    62  59  90 CALM      29.97F                  
OXFORD         MOCLDY    61  61 100 CALM      30.00F FOG              
$$

MEZ002-015-021-024-NHZ003-005-008-011-012-014-VTZ005-008-140200-
NORTHERN NEW ENGLAND
  
CITY           SKY/WX    TMP DP  RH WIND       PRES   REMARKS
PORTLAND ME    CLEAR     61  58  90 SW5       29.92F                  
BANGOR ME      MOCLDY    64  58  80 S6        29.93R                  
CONCORD NH     CLEAR     59  56  89 CALM      29.93F                  
MANCHESTER NH  CLEAR     64  57  78 S5        29.92F                  
NASHUA NH      CLEAR     59  59 100 CALM      29.94F                  
PORTSMOUTH NH  CLEAR     60  56  86 SW3       29.93F                  
JAFFREY NH     CLEAR     58  56  93 S3        29.97F                  
KEENE NH       CLEAR     58  57  97 CALM      29.97R                  
BURLINGTON VT  CLOUDY    64  61  90 SE6       29.96R                  
MT. WASHINGTON PTCLDY    48  41  76 NW13        N/A                   
$$

NYZ052-076-140200-
EASTERN NEW YORK
  
CITY           SKY/WX    TMP DP  RH WIND       PRES   REMARKS
ALBANY         MOCLDY    64  59  83 S3        29.97F                  
NEW YORK CITY  CLOUDY    70  61  73 S6        29.98S                  
$$
 
ANZALL-140200-
MARINE OBSERVATIONS
  
STATION/POSITION TIME  TEMP    WIND        PRES    VSBY  WAVE
                       AIR SEA DIR/SP/G                  HT/PER
                 (UTC) (F)     (DEG/KT/KT) (MB)    (MI)  (FT/S)
BOSTON BUOY      0040      63  200/ 10/ 12 1014.3S
BUZZARDS BAY     0000          200/ 14/ 14 1016.0F
NANTUCKET SOUND  0050   66 67  210/ 12/ 14 1014.5F         1/ 2
MASS BAY-STELLWA 0004   64     200/ 12/ 14 1013.0S  1 7/8  2/ 3
ISLE OF SHOALS   0000   64     190/ 14/ 14 1013.0F
S OF BLOCK IS    0026      66                N/A           3/ 8
$$

......................KEY.........................
  SKY/WX - SKY CONDITION/PRESENT WEATHER
  TMP    - TEMPERATURE IN FAHRENHEIT
  DWPT   - DEWPOINT IN FAHRENHEIT
  RH     - RELATIVE HUMIDITY IN PERCENT
  WIND   - DIRECTION AND SPEED IN MPH
  PRES   - MEAN SEA LEVEL PRESSURE IN INCHES OF HG
  WCI    - WIND CHILL INDEX
  VSB    - VISIBILITY IN MILES
  HX     - HEAT INDEX
  TC     - TEMPERATURE IN CELSIUS
  VRB    - VARIABLE WIND DIRECTION
  N/A    - NOT AVAILABLE
  
      

Other recent Regional Weather Roundups

Sun Oct 17, 8:04pm

Sun Oct 17, 7:04pm

Sun Oct 17, 6:04pm

Sun Oct 17, 5:04pm

Sun Oct 17, 4:04pm

Sun Oct 17, 3:04pm

Sun Oct 17, 2:04pm

Sun Oct 17, 1:04pm

Sun Oct 17, 12:04pm

Sun Oct 17, 11:04am

Sun Oct 17, 10:04am

Sun Oct 17, 9:04am

Sun Oct 17, 8:04am

Sun Oct 17, 7:04am

Sun Oct 17, 6:04am

Sun Oct 17, 5:04am

Sun Oct 17, 4:04am

Sun Oct 17, 3:04am

Sun Oct 17, 2:04am

Sun Oct 17, 1:04am

Sun Oct 17, 12:04am

Sat Oct 16, 11:04pm

Sat Oct 16, 10:04pm

Sat Oct 16, 9:04pm

Sat Oct 16, 8:04pm

Sat Oct 16, 7:04pm

Sat Oct 16, 6:04pm

Sat Oct 16, 5:04pm

Sat Oct 16, 4:04pm

Sat Oct 16, 3:04pm

Sat Oct 16, 2:04pm

Sat Oct 16, 1:04pm

Sat Oct 16, 12:04pm

Sat Oct 16, 11:04am

Sat Oct 16, 10:04am

Sat Oct 16, 9:04am

Sat Oct 16, 8:04am

Sat Oct 16, 7:04am

Sat Oct 16, 6:04am

Sat Oct 16, 5:04am

Sat Oct 16, 4:04am

Sat Oct 16, 3:04am

Sat Oct 16, 2:04am

Sat Oct 16, 1:04am

Sat Oct 16, 12:04am

Fri Oct 15, 11:04pm

Fri Oct 15, 10:04pm

Fri Oct 15, 9:04pm

Fri Oct 15, 8:04pm

Fri Oct 15, 7:04pm

Fri Oct 15, 6:04pm

Fri Oct 15, 5:04pm

Fri Oct 15, 4:04pm

Fri Oct 15, 3:04pm

Fri Oct 15, 2:05pm

Fri Oct 15, 1:05pm

Fri Oct 15, 12:04pm

Fri Oct 15, 11:05am

Fri Oct 15, 10:04am

Fri Oct 15, 9:04am

Fri Oct 15, 8:04am

Fri Oct 15, 7:04am

Fri Oct 15, 6:04am

Fri Oct 15, 5:04am

Fri Oct 15, 4:04am

Fri Oct 15, 3:05am

Fri Oct 15, 2:04am

Fri Oct 15, 1:04am

Fri Oct 15, 12:04am

Thu Oct 14, 11:04pm

Thu Oct 14, 10:04pm

Thu Oct 14, 9:04pm

Thu Oct 14, 8:04pm

Thu Oct 14, 7:04pm

Thu Oct 14, 6:04pm

Thu Oct 14, 5:04pm

Thu Oct 14, 4:04pm

Thu Oct 14, 3:04pm

Thu Oct 14, 2:04pm

Thu Oct 14, 1:04pm

Thu Oct 14, 12:04pm

Thu Oct 14, 11:04am

Thu Oct 14, 10:04am

Thu Oct 14, 9:04am

Thu Oct 14, 8:04am

Thu Oct 14, 7:04am

Thu Oct 14, 6:04am

Thu Oct 14, 5:04am

Thu Oct 14, 4:04am

Thu Oct 14, 3:04am

Thu Oct 14, 2:04am

Thu Oct 14, 1:04am

Thu Oct 14, 12:04am

Wed Oct 13, 11:04pm

Wed Oct 13, 10:04pm

Wed Oct 13, 8:04pm

Wed Oct 13, 7:04pm

Wed Oct 13, 6:04pm

Wed Oct 13, 5:04pm

Wed Oct 13, 4:04pm

Wed Oct 13, 3:04pm

Wed Oct 13, 2:04pm

Wed Oct 13, 1:04pm

Wed Oct 13, 12:04pm

Wed Oct 13, 11:04am

Wed Oct 13, 10:04am

Wed Oct 13, 9:04am

Wed Oct 13, 8:04am

Wed Oct 13, 7:04am

Wed Oct 13, 6:04am

Wed Oct 13, 5:04am

Wed Oct 13, 4:04am

Wed Oct 13, 3:04am

Wed Oct 13, 2:04am

Wed Oct 13, 1:04am

Wed Oct 13, 12:04am

Tue Oct 12, 11:04pm

Tue Oct 12, 10:04pm

Tue Oct 12, 9:04pm

Tue Oct 12, 8:04pm

Tue Oct 12, 7:04pm

Tue Oct 12, 6:04pm

Tue Oct 12, 5:04pm

Tue Oct 12, 4:04pm

Tue Oct 12, 3:04pm

Tue Oct 12, 2:04pm

Tue Oct 12, 1:04pm

Tue Oct 12, 12:04pm

Tue Oct 12, 11:05am

Tue Oct 12, 10:04am

Tue Oct 12, 9:04am

Tue Oct 12, 8:04am

Tue Oct 12, 7:04am

Tue Oct 12, 6:04am

Tue Oct 12, 5:04am

Tue Oct 12, 4:04am

Tue Oct 12, 3:04am

Tue Oct 12, 2:04am

Tue Oct 12, 1:04am

Tue Oct 12, 12:04am

Mon Oct 11, 11:04pm

Mon Oct 11, 10:04pm

Mon Oct 11, 9:04pm

Mon Oct 11, 8:04pm

Mon Oct 11, 7:04pm

Mon Oct 11, 6:04pm

Mon Oct 11, 5:04pm

Mon Oct 11, 4:04pm

Mon Oct 11, 3:04pm

Mon Oct 11, 2:04pm

Mon Oct 11, 1:04pm

Mon Oct 11, 12:04pm

Mon Oct 11, 11:04am

Mon Oct 11, 10:04am

Mon Oct 11, 9:04am

Mon Oct 11, 8:04am

Mon Oct 11, 7:04am

Mon Oct 11, 6:04am

Mon Oct 11, 5:04am

Mon Oct 11, 4:04am

Mon Oct 11, 3:04am

Mon Oct 11, 2:04am

Mon Oct 11, 1:04am

Mon Oct 11, 12:05am

Sun Oct 10, 11:04pm

Sun Oct 10, 10:04pm

Sun Oct 10, 9:04pm

Meta data:

ID: e227f5d0-351e-48ed-a854-480fd022ab7f
Link: https://api.weather.gov/products/e227f5d0-351e-48ed-a854-480fd022ab7f